Home   Weather   Montréal   Past weeks
Flag for Canada

Past Weather in Montréal, Quebec, Canada — Yesterday and Last 2 Weeks

Now
66 °F

Broken clouds.


Feels Like: 66 °F
Forecast: 74 / 64 °F
Wind: 7 mph from Northeast

Location: Montreal - Pierre Elliot Trudeau International Aiport

Current Time: Jul 22, 2019 at 8:24:40 am

Latest Report: Jul 22, 2019 at 7:00 am


Visibility: 15 mi

Pressure: 29.93 "Hg

Humidity: 60%

Dew Point: 52 °F

Location of MontréalLocation

Past Weather in Montréal — Graph

°F

Montréal Temperature Yesterday

Maximum temperature yesterday: 86 °F (at 3:00 pm)
Minimum temperature yesterday: 73 °F (at 8:00 am)
Average temperature yesterday: 79 °F

High & Low Weather Summary for the Past Weeks

 TemperatureHumidityPressure
High91 °F (Jul 20, 4:00 pm)94% (Jul 11, 7:57 am)30.06 "Hg (Jul 11, 7:57 am)
Low55 °F (Jul 8, 5:00 am)30% (Jul 8, 2:00 pm)29.62 "Hg (Jul 21, 4:00 am)
Average74 °F66%29.86 "Hg
* Reported Jul 7 7:00 am — Jul 22 7:00 am, Montréal. Weather by CustomWeather, © 2019

Note: Actual official high and low records may vary slightly from our data, if they occured in-between our weather recording intervals... More about our weather records

Advertising

Montréal Weather History for the Previous 24 Hours

Scroll right to see more
 ConditionsComfort  
Time TempWeatherWind HumidityBarometerVisibility
7:00 am
Mon, Jul 22
66 °FBroken clouds.7 mph60%29.93 "Hg15 mi
6:00 am64 °FBroken clouds.3 mph64%29.94 "Hg15 mi
5:00 am61 °FPartly cloudy.7 mph72%29.93 "Hg15 mi
4:00 am63 °FPassing clouds.9 mph68%29.91 "Hg15 mi
3:00 am66 °FPassing clouds.13 mph64%29.90 "Hg15 mi
2:00 am68 °FPassing clouds.6 mph60%29.89 "Hg15 mi
1:00 am70 °FPartly cloudy.10 mph60%29.88 "Hg15 mi
12:00 am72 °FPartly cloudy.9 mph61%29.86 "Hg15 mi
11:00 pm
Sun, Jul 21
73 °FPassing clouds.9 mph57%29.85 "Hg15 mi
10:00 pm75 °FPassing clouds.8 mph54%29.84 "Hg15 mi
9:00 pm77 °FPassing clouds.10 mph51%29.81 "Hg15 mi
8:00 pm81 °FPassing clouds.9 mph42%29.78 "Hg15 mi
7:00 pm82 °FPassing clouds.16 mph42%29.76 "Hg15 mi
6:00 pm84 °FPartly sunny.14 mph43%29.74 "Hg15 mi
5:00 pm84 °FPassing clouds.15 mph45%29.73 "Hg15 mi
4:00 pm86 °FScattered clouds.14 mph46%29.72 "Hg15 mi
3:00 pm86 °FScattered clouds.16 mph40%29.71 "Hg15 mi
2:00 pm84 °FBroken clouds.17 mph51%29.71 "Hg15 mi
1:00 pm84 °FPartly sunny.9 mph55%29.71 "Hg15 mi
12:00 pm82 °FBroken clouds.8 mph58%29.71 "Hg15 mi
11:00 am81 °FScattered clouds.10 mph66%29.70 "Hg15 mi
10:00 am79 °FPartly sunny.9 mph74%29.70 "Hg15 mi
9:00 am75 °FPartly sunny.3 mph78%29.69 "Hg15 mi
8:00 am73 °FBroken clouds.7 mph89%29.67 "Hg15 mi
Weather by CustomWeather, © 2019

See weather overview